[[{"header":{"parameterUnit":"m.s-1","parameterCategory":2,"la1":30.2991,"la2":30.254,"lo1":-89.0895,"lo2":-89.0444,"dy":0.0017,"dx":0.0017,"nx":28,"ny":28,"refTime":"2023-09-22T03:00:00:Z","depth":"0","parameterNumber":2,"parameterNumberName":"U-component_of_CURRENTS"},"data":[0,0,0,0,0,0,0,0,0,0,0,0,0,0,0,0,0,0,0,0,0,0,0,0,0,0,0,0,0,0,0,0,0,0,0,0,0,0,0,0,0,0,0,0,0,0,0,0,0,0,0,0,0,0,0,0,0,0,0.3402,0.3402,0,0.3436,0.3437,0.3437,0.3421,0.3421,0.342,0.3419,0.3387,0.3387,0.3386,0,0,0,0,0,0,0,0,0,0,0,0,0,0.3367,0.3368,0.3402,0.3402,0.3403,0.3436,0.3437,0.3437,0.3421,0.3421,0.342,0.3419,0.3387,0.3387,0.3386,0,0,0,0,0,0,0,0,0,0,0,0,0,0.3387,0.3368,0.3401,0.3402,0.3402,0.3436,0.3437,0.3437,0.3421,0.3421,0.342,0.3419,0.3387,0.3387,0.3386,0.34,0,0,0.3385,0.3385,0,0,0,0,0,0,0,0,0.3386,0.3388,0.3401,0.3402,0.3402,0.3426,0.3413,0.3422,0.3422,0.3411,0.3419,0.3418,0.3397,0.3395,0.34,0.3399,0.3397,0.3385,0.3384,0.3384,0.3384,0,0,0,0,0,0,0,0.3385,0.3387,0.3412,0.3402,0.3403,0.3416,0.3417,0.3415,0.3404,0.3412,0.3411,0.3421,0.3396,0.3401,0.3399,0.3397,0.3385,0.3384,0.3384,0.3384,0.3426,0.3427,0,0,0,0,0,0,0.3385,0.3385,0.3411,0.3413,0.3396,0.3417,0.3418,0.3417,0.3406,0.3405,0.3421,0.342,0.3402,0.34,0.3398,0.3438,0.3384,0.3384,0.3384,0.3424,0.3426,0.3427,0,0,0,0,0,0,0.3384,0.3387,0.341,0.3403,0.3408,0.3419,0.3417,0.3418,0.3429,0.3415,0.3411,0.3432,0.3401,0.3399,0.3407,0.3435,0.3384,0.3383,0.3423,0.3425,0.3427,0.3502,0,0,0,0,0,0,0.3383,0.3386,0.3392,0.3403,0.3408,0.3436,0.3419,0.342,0.3437,0.3436,0.3423,0.3419,0.34,0.3409,0.3407,0.3434,0.3383,0.3421,0.3424,0.3426,0.3498,0.3507,0.3514,0,0,0,0,0,0.3381,0.3393,0.3392,0.3396,0.3413,0.3437,0.3441,0.3444,0.3439,0.3449,0.3443,0.3419,0.3424,0.3409,0.3407,0.3435,0.3419,0.3423,0.3426,0.3494,0.3505,0.3514,0,0,0,0,0,0,0.3375,0.3394,0.3392,0.3406,0.3424,0.3436,0.3449,0.3454,0.3459,0.3456,0.3437,0.3433,0.3455,0.3435,0.3419,0.3455,0.3419,0.3421,0.3471,0.3481,0.3489,0.3508,0.3382,0,0,0,0,0,0.338,0.3396,0.341,0.3423,0.3431,0.3443,0.3455,0.3459,0.3465,0.3467,0.3461,0.3457,0.3467,0.3465,0.3466,0.3483,0.3495,0.3499,0.3507,0.3514,0.3529,0.3574,0.3588,0.3438,0.3438,0.3438,0,0,0.3381,0.3394,0.3402,0.3424,0.3434,0.346,0.3447,0.347,0.3493,0.3463,0.3487,0.3487,0.348,0.3503,0.351,0.3487,0.3566,0.3518,0.3524,0.3535,0.3579,0.3593,0.3606,0.344,0.344,0.3439,0,0,0.3395,0.3401,0.342,0.3441,0.3467,0.3479,0.3489,0.3507,0.3514,0.3539,0.3532,0.3551,0.3551,0.3562,0.3565,0.3619,0.3612,0.3616,0.3666,0.371,0.3723,0.3735,0.3783,0.3798,0.3614,0.3614,0.3614,0,0.3398,0.3415,0.3431,0.3458,0.3476,0.349,0.3513,0.3534,0.3555,0.3569,0.3552,0.3595,0.3584,0.3632,0.3652,0.3639,0.3664,0.3629,0.3722,0.3734,0.3744,0.379,0.3806,0.3618,0.3618,0.3617,0.3617,0,0.3427,0.3443,0.3457,0.3494,0.3521,0.3542,0.3573,0.3603,0.3613,0.3628,0.3674,0.3676,0.37,0.3705,0.3694,0.3768,0.3764,0.3733,0.3699,0.3764,0.3808,0.3824,0.3624,0.3622,0.3621,0.362,0,0,0.3411,0.3466,0.3467,0.3484,0.3537,0.3556,0.3614,0.3657,0.3688,0.372,0.3761,0.3798,0.3803,0.3809,0.3808,0.3846,0.3943,0.3827,0.3827,0.3879,0.4057,0.4017,0.4029,0.3932,0.3934,0.3936,0.4063,0,0.3419,0.3464,0.3496,0.3537,0.3556,0.3602,0.365,0.37,0.373,0.3776,0.381,0.3839,0.3841,0.385,0.3903,0.3931,0.3985,0.3913,0.3983,0.3985,0.3945,0.4045,0.3871,0.3966,0.4078,0.408,0.4082,0,0.342,0.3452,0.3493,0.3545,0.3558,0.3594,0.3666,0.371,0.3791,0.3812,0.3876,0.3895,0.3981,0.3948,0.4075,0.4033,0.4062,0.4081,0.4085,0.4032,0.3973,0.3917,0.3989,0.3918,0.4105,0.4103,0.4101,0,0.3379,0.3436,0.3465,0.3487,0.3565,0.3595,0.3635,0.3716,0.3762,0.3834,0.3887,0.3967,0.403,0.4085,0.4161,0.4118,0.4293,0.4224,0.4224,0.4221,0.4079,0.4059,0.409,0.4314,0.4314,0.4314,0.4313,0,0.336,0.3379,0.3445,0.3464,0.35,0.3563,0.3612,0.3666,0.3759,0.3824,0.3902,0.3979,0.4071,0.4182,0.4206,0.4296,0.434,0.4268,0.4262,0.4101,0.4082,0.4014,0.3964,0.4318,0.4317,0.4316,0.4316,0,0.3309,0.3354,0.3389,0.3462,0.348,0.3506,0.3595,0.3635,0.3738,0.3836,0.3868,0.4029,0.4171,0.4276,0.438,0.4368,0.4304,0.4435,0.425,0.4219,0.4092,0.4051,0.3925,0.3804,0.443,0.443,0.443,0,0.3287,0.3302,0.337,0.3388,0.3418,0.3466,0.3499,0.3598,0.3653,0.386,0.3907,0.4098,0.421,0.439,0.4396,0.4458,0.4333,0.4312,0.4182,0.4099,0.405,0.388,0.3774,0.4032,0.4028,0.4026,0.4024,0,0.3244,0.3271,0.3298,0.3338,0.3367,0.3401,0.3459,0.3507,0.3646,0.3755,0.3906,0.4016,0.422,0.4211,0.432,0.4319,0.4091,0.4256,0.4211,0.379,0.3565,0.344,0.395,0.3999,0.4002,0.4004,0.4005,0.4006,0.3197,0.3202,0.3238,0.3261,0.3297,0.3316,0.33,0.3392,0.3473,0.3587,0.3787,0.3882,0.3994,0.4115,0.4101,0.3991,0.3954,0.3852,0.383,0.3683,0.349,0.3964,0.3975,0.3978,0.3979,0.3981,0.3983,0,0.3109,0.3127,0.3157,0.3165,0.3153,0.3208,0.3249,0.3215,0.3249,0.3415,0.352,0.3626,0.3659,0.3736,0.373,0.3591,0.339,0.3497,0.3217,0.3148,0.362,0.3528,0.3392,0.3392,0.3392,0.3392,0.3392,0.3392,0.3062,0.3041,0.3053,0.2999,0.3007,0.293,0.2918,0.2909,0.2981,0.3025,0.3075,0.3194,0.3415,0.3512,0.343,0.3336,0.3072,0.2912,0.2927,0.3282,0.3312,0.3341,0.3245,0.3051,0.3051,0.2297,0.2291,0.2287]},{"header":{"parameterUnit":"m.s-1","parameterCategory":2,"la1":30.2991,"la2":30.254,"lo1":-89.0895,"lo2":-89.0444,"dy":0.0017,"dx":0.0017,"nx":28,"ny":28,"refTime":"2023-09-22T03:00:00:Z","depth":"0","parameterNumber":3,"parameterNumberName":"V-component_of_CURRENTS"},"data":[0,0,0,0,0,0,0,0,0,0,0,0,0,0,0,0,0,0,0,0,0,0,0,0,0,0,0,0,0,0,0,0,0,0,0,0,0,0,0,0,0,0,0,0,0,0,0,0,0,0,0,0,0,0,0,0,0,0,-0.0204,-0.0204,0,-0.0272,-0.0273,-0.0274,-0.0317,-0.0317,-0.0317,-0.0317,-0.0396,-0.0398,-0.04,0,0,0,0,0,0,0,0,0,0,0,0,0,-0.0164,-0.0164,-0.0204,-0.0204,-0.0205,-0.0272,-0.0274,-0.0275,-0.0317,-0.0317,-0.0317,-0.0317,-0.0395,-0.0397,-0.04,0,0,0,0,0,0,0,0,0,0,0,0,0,-0.0204,-0.0165,-0.0203,-0.0232,-0.0235,-0.0272,-0.0274,-0.0275,-0.0317,-0.0317,-0.0317,-0.0317,-0.0394,-0.0397,-0.04,-0.042,0,0,-0.041,-0.0411,0,0,0,0,0,0,0,0,-0.0202,-0.0206,-0.0227,-0.023,-0.0234,-0.0284,-0.0288,-0.0323,-0.0317,-0.0289,-0.0317,-0.0317,-0.0357,-0.0364,-0.038,-0.0424,-0.0427,-0.041,-0.0412,-0.0414,-0.0414,0,0,0,0,0,0,0,-0.0199,-0.0203,-0.0234,-0.0228,-0.0232,-0.026,-0.0266,-0.0296,-0.0324,-0.0291,-0.0294,-0.0297,-0.036,-0.0377,-0.0382,-0.0429,-0.041,-0.0413,-0.0415,-0.0416,-0.0498,-0.0498,0,0,0,0,0,0,-0.0182,-0.0201,-0.0231,-0.0235,-0.0214,-0.0261,-0.0267,-0.027,-0.0324,-0.0331,-0.0297,-0.0299,-0.0372,-0.0379,-0.0385,-0.0406,-0.0413,-0.0416,-0.0418,-0.0498,-0.0498,-0.0498,0,0,0,0,0,0,-0.0181,-0.0184,-0.0228,-0.0218,-0.0225,-0.0261,-0.0264,-0.0271,-0.0284,-0.0328,-0.0336,-0.0301,-0.0372,-0.0381,-0.0407,-0.0409,-0.0418,-0.0421,-0.0497,-0.0498,-0.0498,-0.045,0,0,0,0,0,0,-0.018,-0.0184,-0.0184,-0.0216,-0.0225,-0.024,-0.0264,-0.0272,-0.0285,-0.0288,-0.0334,-0.0342,-0.0373,-0.0402,-0.041,-0.0414,-0.0423,-0.0497,-0.0498,-0.0498,-0.0452,-0.0449,-0.0447,0,0,0,0,0,-0.0178,-0.0175,-0.0184,-0.0188,-0.0223,-0.0239,-0.0246,-0.0274,-0.0285,-0.0286,-0.032,-0.034,-0.0411,-0.0405,-0.0414,-0.0418,-0.0497,-0.0497,-0.0498,-0.0453,-0.045,-0.0447,0,0,0,0,0,0,-0.0157,-0.018,-0.019,-0.0194,-0.021,-0.0245,-0.025,-0.0268,-0.0297,-0.03,-0.0342,-0.0352,-0.0378,-0.0405,-0.0396,-0.0445,-0.0458,-0.0461,-0.0421,-0.0418,-0.0416,-0.0389,-0.0426,0,0,0,0,0,-0.0152,-0.0158,-0.0179,-0.0183,-0.0186,-0.0216,-0.0228,-0.0244,-0.0271,-0.0284,-0.0317,-0.0355,-0.039,-0.0406,-0.044,-0.0464,-0.0474,-0.0474,-0.0472,-0.0469,-0.0455,-0.0485,-0.0483,-0.05,-0.05,-0.05,0,0,-0.0145,-0.0158,-0.0162,-0.0179,-0.0194,-0.0194,-0.0224,-0.0233,-0.0235,-0.0288,-0.0303,-0.0346,-0.0394,-0.0422,-0.0437,-0.0443,-0.0467,-0.047,-0.0468,-0.0454,-0.0485,-0.0483,-0.0482,-0.0501,-0.0501,-0.0501,0,0,-0.0126,-0.0142,-0.0135,-0.0146,-0.0161,-0.0177,-0.0174,-0.0202,-0.0216,-0.0237,-0.0279,-0.0319,-0.0367,-0.0405,-0.043,-0.0435,-0.0454,-0.0448,-0.0415,-0.0445,-0.0443,-0.0442,-0.0434,-0.0432,-0.0448,-0.0448,-0.0447,0,-0.0115,-0.0107,-0.0135,-0.0129,-0.0129,-0.0162,-0.0147,-0.0169,-0.0204,-0.021,-0.0232,-0.031,-0.0359,-0.0393,-0.0402,-0.0429,-0.0433,-0.042,-0.044,-0.0439,-0.0438,-0.0431,-0.043,-0.0445,-0.0446,-0.0446,-0.0446,0,-0.0087,-0.0081,-0.0075,-0.0077,-0.0085,-0.0077,-0.0101,-0.0109,-0.0131,-0.0157,-0.0191,-0.0261,-0.0302,-0.0336,-0.0374,-0.0398,-0.0396,-0.0431,-0.0441,-0.0433,-0.0426,-0.0426,-0.0442,-0.0443,-0.0444,-0.0444,0,0,-0.0046,-0.0053,-0.0046,-0.0032,-0.0052,-0.0047,-0.0051,-0.0056,-0.0043,-0.0102,-0.0095,-0.0188,-0.0223,-0.0254,-0.0312,-0.0351,-0.0363,-0.0385,-0.0388,-0.0365,-0.0394,-0.036,-0.0357,-0.04,-0.04,-0.04,-0.0383,0,-0.0004,0.0026,0.0007,0.0042,0.0061,0.003,0.0039,0.0022,-0.0003,-0.0007,-0.0087,-0.0112,-0.0191,-0.021,-0.0262,-0.0335,-0.0362,-0.0362,-0.0414,-0.0415,-0.0378,-0.0356,-0.032,-0.03,-0.0383,-0.0383,-0.0383,0,0.0044,0.0059,0.0101,0.012,0.0128,0.0141,0.016,0.0159,0.013,0.0106,0.0058,0.0004,-0.0061,-0.0131,-0.0236,-0.0228,-0.03,-0.0363,-0.0364,-0.0348,-0.0381,-0.0327,-0.0296,-0.0475,-0.0382,-0.0382,-0.0382,0,0.0107,0.0132,0.0173,0.0176,0.0185,0.0206,0.0215,0.02,0.0221,0.018,0.0197,0.01,0.008,-0.0038,-0.016,-0.0199,-0.0256,-0.033,-0.0361,-0.0359,-0.0345,-0.034,-0.0483,-0.0397,-0.0397,-0.0397,-0.0397,0,0.0165,0.02,0.0211,0.0234,0.0299,0.0276,0.0339,0.0324,0.033,0.0385,0.0269,0.03,0.0101,0.0047,-0.0099,-0.0198,-0.0205,-0.0335,-0.0352,-0.0325,-0.0319,-0.0489,-0.0597,-0.0396,-0.0396,-0.0396,-0.0396,0,0.0225,0.0229,0.0282,0.0311,0.033,0.0376,0.0429,0.0475,0.0464,0.0536,0.0534,0.0461,0.0398,0.023,0.0061,-0.0086,-0.0296,-0.025,-0.018,-0.0191,-0.0413,-0.0519,-0.0646,-0.0714,-0.0293,-0.0292,-0.0292,0,0.0255,0.0288,0.0347,0.0395,0.0414,0.0479,0.0533,0.0536,0.0595,0.0656,0.071,0.0672,0.0694,0.0474,0.02,-0.001,-0.0213,-0.0151,-0.0244,-0.0401,-0.0533,-0.0616,-0.0671,-0.0201,-0.0199,-0.0198,-0.0197,0,0.0318,0.0342,0.039,0.0486,0.0553,0.0634,0.0717,0.0787,0.0829,0.0921,0.1037,0.1067,0.0872,0.0675,0.0362,0.0179,-0.0268,-0.0133,-0.0331,-0.0489,-0.0555,-0.0635,-0.0219,-0.0186,-0.0187,-0.0188,-0.0189,-0.0189,0.0375,0.0425,0.0497,0.059,0.0674,0.0795,0.0882,0.1,0.1147,0.1316,0.1318,0.1433,0.1081,0.0669,0.0384,-0.0138,-0.0175,-0.0324,-0.0438,-0.0506,-0.0583,-0.0116,-0.0089,-0.009,-0.009,-0.0091,-0.0091,0,0.0456,0.0511,0.0598,0.0716,0.0825,0.0852,0.1012,0.1124,0.1339,0.1533,0.1678,0.163,0.1203,0.0711,0.0013,-0.0379,-0.0551,-0.061,-0.0754,-0.0799,-0.0408,-0.0417,-0.0417,-0.0417,-0.0416,-0.0416,-0.0416,-0.0416,0.0505,0.0603,0.0644,0.083,0.0917,0.1072,0.1172,0.1361,0.1534,0.1811,0.1942,0.2004,0.1641,0.0359,-0.0536,-0.0752,-0.1036,-0.1083,-0.1243,-0.1025,-0.1009,-0.0994,-0.1029,-0.1157,-0.1158,-0.1576,-0.1581,-0.1584]}],[{"header":{"parameterUnit":"m.s-1","parameterCategory":2,"la1":30.2991,"la2":30.254,"lo1":-89.0895,"lo2":-89.0444,"dy":0.0017,"dx":0.0017,"nx":28,"ny":28,"refTime":"2023-09-22T03:00:00:Z","depth":"2","parameterNumber":2,"parameterNumberName":"U-component_of_CURRENTS"},"data":[0,0,0,0,0,0,0,0,0,0,0,0,0,0,0,0,0,0,0,0,0,0,0,0,0,0,0,0,0,0,0,0,0,0,0,0,0,0,0,0,0,0,0,0,0,0,0,0,0,0,0,0,0,0,0,0,0,0,0.2668,0.2668,0,0.2683,0.2683,0.2683,0.2705,0.2705,0.2705,0.2706,0.2721,0.2722,0.2722,0,0,0,0,0,0,0,0,0,0,0,0,0,0.2625,0.2626,0.2668,0.2668,0.2668,0.2683,0.2683,0.2683,0.2705,0.2705,0.2705,0.2706,0.2721,0.2722,0.2722,0,0,0,0,0,0,0,0,0,0,0,0,0,0.2644,0.2627,0.2668,0.2679,0.268,0.2683,0.2683,0.2683,0.2705,0.2705,0.2705,0.2706,0.2721,0.2722,0.2722,0.2717,0,0,0.2723,0.2723,0,0,0,0,0,0,0,0,0.2643,0.2646,0.2677,0.2678,0.2679,0.2691,0.2674,0.2694,0.2705,0.2697,0.2706,0.2706,0.271,0.2711,0.2716,0.2718,0.2719,0.2723,0.2723,0.2723,0.2723,0,0,0,0,0,0,0,0.2642,0.2645,0.2675,0.2677,0.2679,0.2672,0.2676,0.2678,0.2703,0.2698,0.2699,0.2698,0.2711,0.2715,0.2716,0.2719,0.2723,0.2723,0.2723,0.2724,0.2782,0.2783,0,0,0,0,0,0,0.2638,0.2644,0.2675,0.2676,0.266,0.2673,0.2677,0.2688,0.2703,0.2705,0.2698,0.2699,0.2715,0.2716,0.2717,0.2775,0.2723,0.2724,0.2724,0.278,0.2782,0.2784,0,0,0,0,0,0,0.2637,0.2641,0.2674,0.2658,0.2661,0.2673,0.2686,0.2688,0.2718,0.2702,0.2705,0.2727,0.2715,0.2716,0.2739,0.2774,0.2724,0.2724,0.2779,0.2781,0.2783,0.2852,0,0,0,0,0,0,0.2636,0.2641,0.2651,0.2658,0.2662,0.27,0.2685,0.2688,0.2714,0.2717,0.2728,0.2728,0.2715,0.2738,0.2739,0.2773,0.2724,0.2777,0.278,0.2782,0.2848,0.2856,0.2863,0,0,0,0,0,0.2635,0.2643,0.2652,0.2656,0.2676,0.2701,0.2704,0.2712,0.2716,0.2739,0.2741,0.273,0.2755,0.2739,0.274,0.2775,0.2776,0.2779,0.2782,0.2845,0.2854,0.2863,0,0,0,0,0,0,0.2629,0.2647,0.2656,0.2671,0.2697,0.2704,0.2716,0.2729,0.275,0.2745,0.2743,0.2744,0.2781,0.2766,0.2749,0.28,0.2766,0.2769,0.2813,0.2822,0.283,0.283,0.2725,0,0,0,0,0,0.2633,0.2653,0.2669,0.2689,0.2697,0.2714,0.2726,0.2733,0.2746,0.2757,0.2762,0.2767,0.2789,0.2796,0.2804,0.2826,0.283,0.285,0.2858,0.2864,0.2865,0.2912,0.2924,0.2793,0.2793,0.2793,0,0,0.2634,0.265,0.266,0.269,0.2705,0.2727,0.2724,0.2744,0.2765,0.2753,0.2781,0.2796,0.2803,0.2833,0.2847,0.2826,0.2905,0.2868,0.2874,0.2871,0.2917,0.2929,0.2941,0.2796,0.2795,0.2795,0,0,0.2646,0.2665,0.2682,0.2705,0.2729,0.2742,0.2757,0.2774,0.2786,0.2813,0.2818,0.285,0.2869,0.2884,0.2895,0.2947,0.2948,0.2959,0.2993,0.304,0.3051,0.3061,0.3086,0.3098,0.2958,0.2958,0.2958,0,0.2649,0.2673,0.2693,0.2716,0.273,0.2756,0.2775,0.2796,0.282,0.2836,0.2829,0.2888,0.2892,0.2948,0.2968,0.2965,0.2988,0.2959,0.305,0.306,0.3069,0.3093,0.3105,0.2961,0.2961,0.2961,0.296,0,0.2663,0.2692,0.2705,0.2747,0.2769,0.2791,0.2814,0.2844,0.286,0.2881,0.2936,0.2946,0.2986,0.3,0.3001,0.3076,0.3072,0.306,0.3028,0.3087,0.3108,0.3119,0.2967,0.2965,0.2964,0.2963,0,0,0.2649,0.2703,0.2711,0.2732,0.2781,0.2798,0.2842,0.2887,0.2925,0.2953,0.3004,0.3047,0.3067,0.3081,0.3096,0.313,0.3214,0.3129,0.313,0.3156,0.3319,0.3279,0.3286,0.3233,0.3235,0.3237,0.3309,0,0.2659,0.269,0.2723,0.277,0.2783,0.2829,0.2874,0.2919,0.2958,0.3015,0.3046,0.3103,0.3095,0.313,0.3169,0.321,0.3247,0.3195,0.3256,0.3257,0.3217,0.3299,0.3038,0.3078,0.332,0.3322,0.3323,0,0.2654,0.268,0.271,0.2773,0.2785,0.2829,0.2899,0.2942,0.3031,0.3063,0.3129,0.3165,0.324,0.3217,0.3313,0.3289,0.3313,0.3328,0.3332,0.3276,0.3239,0.3058,0.3089,0.3341,0.334,0.3338,0.3337,0,0.2606,0.2669,0.2691,0.2711,0.2789,0.2826,0.2876,0.296,0.3004,0.3107,0.3158,0.3242,0.33,0.3347,0.3395,0.337,0.3488,0.3451,0.3431,0.3428,0.3205,0.3178,0.3516,0.3515,0.3515,0.3515,0.3515,0,0.2588,0.2612,0.2677,0.2692,0.2739,0.2802,0.2873,0.2933,0.3036,0.3097,0.3187,0.3253,0.3343,0.3419,0.3434,0.3481,0.3526,0.3456,0.3456,0.3221,0.3197,0.3416,0.3403,0.3518,0.3517,0.3517,0.3516,0,0.2536,0.258,0.2609,0.2687,0.2718,0.275,0.2865,0.2914,0.3024,0.3109,0.3151,0.3295,0.34,0.3469,0.3558,0.3536,0.3571,0.3571,0.3287,0.3252,0.3463,0.3453,0.355,0.355,0.3549,0.3549,0.3549,0,0.2502,0.2513,0.2584,0.2608,0.2653,0.2722,0.2771,0.2889,0.294,0.3119,0.3148,0.3309,0.3381,0.3509,0.3522,0.3555,0.3596,0.3314,0.3213,0.3483,0.3473,0.3464,0.3455,0.2939,0.2934,0.293,0.2926,0,0.2449,0.2484,0.2517,0.255,0.26,0.2643,0.2722,0.2761,0.2899,0.2977,0.309,0.3173,0.3334,0.3271,0.3346,0.3321,0.3287,0.3229,0.3597,0.2982,0.2916,0.2903,0.2912,0.2888,0.2891,0.2894,0.2896,0.2898,0.2412,0.241,0.2453,0.2473,0.2527,0.254,0.2534,0.2616,0.2672,0.2746,0.2925,0.2962,0.3044,0.3036,0.2966,0.2928,0.3149,0.2985,0.2994,0.3009,0.2936,0.2875,0.2824,0.2827,0.283,0.2832,0.2835,0,0.2326,0.234,0.2368,0.2377,0.2376,0.2443,0.2473,0.2432,0.243,0.2552,0.2625,0.2491,0.2484,0.2561,0.246,0.2484,0.2416,0.2367,0.2239,0.2282,0.232,0.2206,0.1903,0.1899,0.1896,0.1893,0,0,0.2292,0.2271,0.2267,0.2216,0.223,0.2173,0.2156,0.2117,0.2151,0.2129,0.2146,0.2364,0.2493,0.2154,0.2133,0.199,0.2103,0.1914,0.2673,0.2566,0.2598,0.2706,0.2586,0,0,0,0,0]},{"header":{"parameterUnit":"m.s-1","parameterCategory":2,"la1":30.2991,"la2":30.254,"lo1":-89.0895,"lo2":-89.0444,"dy":0.0017,"dx":0.0017,"nx":28,"ny":28,"refTime":"2023-09-22T03:00:00:Z","depth":"2","parameterNumber":3,"parameterNumberName":"V-component_of_CURRENTS"},"data":[0,0,0,0,0,0,0,0,0,0,0,0,0,0,0,0,0,0,0,0,0,0,0,0,0,0,0,0,0,0,0,0,0,0,0,0,0,0,0,0,0,0,0,0,0,0,0,0,0,0,0,0,0,0,0,0,0,0,0.0156,0.0156,0,0.0116,0.0115,0.0114,0.007,0.007,0.0069,0.0069,-0.0011,-0.0012,-0.0014,0,0,0,0,0,0,0,0,0,0,0,0,0,0.0172,0.0172,0.0156,0.0156,0.0156,0.0116,0.0115,0.0114,0.007,0.007,0.0069,0.0069,-0.001,-0.0012,-0.0014,0,0,0,0,0,0,0,0,0,0,0,0,0,0.0149,0.0172,0.0156,0.0131,0.0128,0.0116,0.0115,0.0114,0.007,0.007,0.0069,0.0069,-0.0009,-0.0012,-0.0014,-0.0018,0,0,-0.0022,-0.0024,0,0,0,0,0,0,0,0,0.0151,0.0148,0.0135,0.0133,0.013,0.0099,0.0091,0.0069,0.0071,0.009,0.0069,0.0068,0.0025,0.0019,0.001,-0.0022,-0.0026,-0.0023,-0.0024,-0.0025,-0.0026,0,0,0,0,0,0,0,0.0152,0.015,0.0138,0.0135,0.0132,0.0113,0.0109,0.0087,0.0059,0.0088,0.0085,0.0085,0.0022,0.0013,0.0008,-0.0027,-0.0023,-0.0025,-0.0027,-0.0028,-0.0077,-0.0077,0,0,0,0,0,0,0.0164,0.0152,0.0139,0.0137,0.0142,0.0114,0.0109,0.0108,0.006,0.0053,0.0086,0.0083,0.0017,0.0011,0.0005,-0.0002,-0.0025,-0.0028,-0.0029,-0.0078,-0.0077,-0.0077,0,0,0,0,0,0,0.0165,0.0163,0.0141,0.0145,0.0141,0.0115,0.0113,0.0107,0.0095,0.0058,0.005,0.0079,0.0017,0.0008,-0.0013,-0.0005,-0.0029,-0.0031,-0.0078,-0.0078,-0.0077,-0.0015,0,0,0,0,0,0,0.0165,0.0164,0.0167,0.0146,0.0142,0.0137,0.0114,0.0107,0.0097,0.0093,0.005,0.0042,0.0016,-0.0009,-0.0015,-0.0009,-0.0033,-0.0078,-0.0078,-0.0077,-0.0018,-0.0013,-0.0009,0,0,0,0,0,0.0166,0.0179,0.0168,0.0166,0.0147,0.0137,0.0133,0.011,0.0097,0.0095,0.0067,0.0043,-0.0011,-0.001,-0.0018,-0.0013,-0.0078,-0.0078,-0.0077,-0.002,-0.0014,-0.0009,0,0,0,0,0,0,0.0189,0.0175,0.0162,0.017,0.0155,0.0131,0.0132,0.0114,0.009,0.009,0.0047,0.0038,0.002,-0.0004,-0.0003,-0.0027,-0.0049,-0.005,-0.0002,0.0003,0.0007,0.0032,-0.0036,0,0,0,0,0,0.0196,0.02,0.0181,0.0186,0.0182,0.0155,0.0149,0.0136,0.0115,0.0104,0.0072,0.0042,0.0017,0.0004,-0.0022,-0.0032,-0.0059,-0.0035,-0.003,-0.0026,-0.0012,-0.0053,-0.005,-0.0075,-0.0075,-0.0075,0,0,0.0209,0.02,0.0203,0.0191,0.0177,0.0183,0.0149,0.0149,0.0154,0.01,0.0093,0.0056,0.0017,0.0005,-0.0005,-0.0015,-0.0033,-0.0026,-0.0022,-0.0009,-0.0052,-0.0049,-0.0047,-0.0075,-0.0075,-0.0075,0,0,0.0238,0.0226,0.024,0.0233,0.0222,0.0207,0.0208,0.0186,0.0175,0.0167,0.0127,0.0099,0.0062,0.0037,0.0019,0.0033,-0.001,0.0018,0.0064,0.0024,0.0026,0.0027,-0.0,-0.0002,0.0023,0.0023,0.0023,0,0.0253,0.0267,0.0242,0.0254,0.0259,0.0221,0.0241,0.0227,0.02,0.0197,0.0175,0.0119,0.0082,0.0066,0.0069,0.0045,0.0016,0.0048,0.0031,0.0031,0.0032,0.0003,0.0001,0.0026,0.0026,0.0026,0.0025,0,0.0296,0.0305,0.0314,0.0315,0.0314,0.0327,0.0309,0.0304,0.0284,0.0265,0.0244,0.0192,0.0159,0.0138,0.0108,0.0092,0.007,0.0039,0.0021,0.0038,0.0007,0.0003,0.0031,0.0029,0.0029,0.0028,0,0,0.0334,0.0343,0.0347,0.0361,0.0352,0.036,0.037,0.0367,0.0379,0.0338,0.0345,0.0289,0.0252,0.023,0.018,0.0146,0.0119,0.01,0.0096,0.008,0.0037,0.0019,0.0013,0.008,0.008,0.0079,0.0016,0,0.0373,0.0416,0.0407,0.0446,0.0466,0.0444,0.046,0.0453,0.0433,0.0426,0.0369,0.0349,0.0289,0.0273,0.0229,0.0149,0.0111,0.014,0.0017,0.0014,0.0001,0.0009,0.0039,-0.0016,0.0012,0.0011,0.0011,0,0.0418,0.0443,0.0492,0.0519,0.0528,0.0542,0.0563,0.0576,0.0553,0.0539,0.0502,0.0446,0.0394,0.0337,0.0218,0.0236,0.0147,0.008,0.0075,0.0037,-0.0011,-0.0031,-0.0024,0.0004,0.0004,0.0005,0.0005,0,0.0465,0.05,0.0543,0.0554,0.0578,0.0597,0.0612,0.0608,0.0637,0.0606,0.0612,0.0529,0.0503,0.0379,0.0238,0.0223,0.0106,0.0063,-0.0036,-0.0038,-0.0045,-0.0047,-0.0023,-0.0023,-0.0023,-0.0023,-0.0023,0,0.0512,0.0546,0.0568,0.0597,0.0658,0.0654,0.0713,0.0714,0.0729,0.0776,0.0673,0.0683,0.0511,0.0417,0.0271,0.0118,0.0127,-0.0019,-0.0055,-0.0023,-0.0022,-0.0033,-0.0033,-0.0025,-0.0025,-0.0024,-0.0024,0,0.0552,0.0566,0.0623,0.0664,0.0682,0.0729,0.0794,0.0837,0.0835,0.0891,0.0886,0.0806,0.0685,0.0502,0.0314,0.0178,0.0018,-0.0044,0.0014,-0.0015,-0.0109,-0.0105,-0.0159,-0.016,-0.0161,-0.0162,-0.0163,0,0.0579,0.0611,0.0681,0.0724,0.0743,0.081,0.0864,0.0893,0.0948,0.0975,0.1011,0.091,0.0858,0.0571,0.0312,0.0058,0.0018,-0.0086,-0.0115,-0.0092,-0.0122,-0.0117,-0.0112,-0.0101,-0.0101,-0.0101,-0.0101,0,0.0631,0.0651,0.07,0.0794,0.0855,0.0939,0.1016,0.1078,0.1127,0.1167,0.1208,0.1166,0.0901,0.0647,0.0293,0.0126,-0.0045,-0.0097,-0.0089,-0.0069,-0.0043,-0.007,-0.0067,-0.0102,-0.0102,-0.0102,-0.0102,-0.0102,0.067,0.0713,0.0777,0.0864,0.0944,0.1051,0.1128,0.1214,0.1316,0.1379,0.1352,0.1293,0.101,0.0556,0.0253,-0.0061,-0.0047,-0.0161,-0.0158,-0.0156,-0.0136,-0.0113,-0.0181,-0.0181,-0.0182,-0.0182,-0.0182,0,0.0715,0.0761,0.0844,0.0948,0.1041,0.108,0.1218,0.1293,0.1413,0.1469,0.1491,0.1226,0.0936,0.0603,0.0135,-0.0143,-0.0156,-0.0227,-0.0188,-0.0184,-0.0181,-0.0162,-0.0214,-0.0215,-0.0216,-0.0217,0,0,0.0737,0.0814,0.0853,0.1004,0.1082,0.1211,0.1294,0.1403,0.1475,0.1519,0.149,0.1426,0.1036,0.0689,0.0312,0.004,-0.0005,-0.0003,0.0056,0.0151,0.0157,-0.0106,-0.0068,0,0,0,0,0]}],[{"header":{"parameterUnit":"m.s-1","parameterCategory":2,"la1":30.2991,"la2":30.254,"lo1":-89.0895,"lo2":-89.0444,"dy":0.0017,"dx":0.0017,"nx":28,"ny":28,"refTime":"2023-09-22T03:00:00:Z","depth":"4","parameterNumber":2,"parameterNumberName":"U-component_of_CURRENTS"},"data":[0,0,0,0,0,0,0,0,0,0,0,0,0,0,0,0,0,0,0,0,0,0,0,0,0,0,0,0,0,0,0,0,0,0,0,0,0,0,0,0,0,0,0,0,0,0,0,0,0,0,0,0,0,0,0,0,0,0,0.161,0.1611,0,0.1669,0.1669,0.167,0.1728,0.1729,0.173,0.1731,0.1802,0.1803,0.1804,0,0,0,0,0,0,0,0,0,0,0,0,0,0.1518,0.1519,0.161,0.1611,0.1612,0.1668,0.1669,0.167,0.1728,0.1729,0.173,0.1731,0.1802,0.1803,0.1804,0,0,0,0,0,0,0,0,0,0,0,0,0,0.1563,0.152,0.161,0.1649,0.1654,0.1668,0.1669,0.167,0.1728,0.1729,0.1731,0.1732,0.1801,0.1803,0.1804,0.1784,0,0,0.1809,0.181,0,0,0,0,0,0,0,0,0.1561,0.1566,0.1643,0.1647,0.1652,0.1694,0.1663,0.1709,0.1727,0.1697,0.1731,0.1733,0.1768,0.1772,0.1777,0.1788,0.1791,0.1809,0.181,0.1811,0.1811,0,0,0,0,0,0,0,0.1557,0.1564,0.1631,0.1644,0.1649,0.1654,0.1662,0.1672,0.1722,0.17,0.1705,0.1714,0.177,0.1775,0.1779,0.1792,0.1809,0.181,0.1811,0.1812,0.1916,0.1918,0,0,0,0,0,0,0.1555,0.1561,0.1629,0.1633,0.1611,0.1654,0.1663,0.1677,0.1722,0.1731,0.1713,0.1717,0.1772,0.1777,0.1781,0.1866,0.1811,0.1812,0.1813,0.1914,0.1916,0.1918,0,0,0,0,0,0,0.1552,0.156,0.1627,0.16,0.1609,0.1655,0.167,0.1678,0.1722,0.1732,0.1741,0.1754,0.1773,0.1779,0.1829,0.1865,0.1813,0.1814,0.1912,0.1915,0.1917,0.1967,0,0,0,0,0,0,0.155,0.1559,0.1584,0.16,0.1611,0.1662,0.1669,0.1678,0.1724,0.1731,0.1769,0.1775,0.1775,0.1827,0.1831,0.1866,0.1815,0.1909,0.1913,0.1916,0.1963,0.1971,0.1978,0,0,0,0,0,0.1546,0.1566,0.1585,0.1594,0.1638,0.1663,0.1669,0.1704,0.1725,0.1749,0.1781,0.1776,0.1853,0.183,0.1834,0.187,0.1908,0.1912,0.1916,0.1959,0.1969,0.1978,0,0,0,0,0,0,0.154,0.1575,0.1596,0.1628,0.1658,0.1675,0.1705,0.1724,0.1766,0.1786,0.1794,0.1802,0.1861,0.186,0.1835,0.1913,0.1881,0.1887,0.1913,0.1922,0.193,0.1939,0.1816,0,0,0,0,0,0.1549,0.1577,0.1607,0.1637,0.1658,0.1688,0.171,0.1734,0.1765,0.1787,0.1813,0.1844,0.1872,0.1895,0.1916,0.1953,0.196,0.1983,0.199,0.1997,0.2009,0.2044,0.2056,0.1932,0.1932,0.1932,0,0,0.1552,0.1579,0.1595,0.1639,0.1668,0.1698,0.1707,0.1751,0.1784,0.1786,0.1851,0.1872,0.189,0.1937,0.1963,0.1946,0.2037,0.2002,0.2007,0.2016,0.205,0.2062,0.2072,0.1935,0.1935,0.1934,0,0,0.1562,0.1604,0.163,0.1659,0.1711,0.1729,0.1751,0.1792,0.1827,0.1879,0.1894,0.1942,0.1983,0.2003,0.2016,0.2078,0.2076,0.2092,0.2138,0.2172,0.2182,0.2191,0.2219,0.223,0.2096,0.2096,0.2096,0,0.1572,0.1607,0.1641,0.1674,0.1704,0.1748,0.1781,0.1816,0.1869,0.1902,0.1914,0.1997,0.2012,0.2067,0.2096,0.2095,0.2114,0.2097,0.2181,0.219,0.2199,0.2225,0.2236,0.2099,0.2098,0.2098,0.2098,0,0.1589,0.1634,0.1655,0.1712,0.1747,0.1786,0.1834,0.1884,0.1933,0.1963,0.2044,0.2071,0.2122,0.2136,0.2138,0.221,0.2205,0.2184,0.2154,0.2214,0.2238,0.2249,0.2103,0.2102,0.2101,0.21,0,0,0.1572,0.1652,0.1664,0.1696,0.1774,0.1796,0.1869,0.1934,0.1987,0.205,0.2115,0.2174,0.2204,0.2222,0.2235,0.2269,0.2345,0.2263,0.2264,0.2284,0.243,0.2292,0.2291,0.2343,0.2345,0.2347,0.2423,0,0.1584,0.1637,0.1683,0.1743,0.1775,0.1844,0.19,0.1968,0.2036,0.2109,0.2163,0.2229,0.2232,0.2271,0.2309,0.2338,0.2377,0.2327,0.2375,0.2377,0.2241,0.23,0.2354,0.2431,0.2434,0.2436,0.2437,0,0.1585,0.1623,0.1681,0.1759,0.1782,0.1831,0.1935,0.1994,0.2104,0.216,0.2245,0.2289,0.2371,0.2355,0.2446,0.2419,0.2441,0.2452,0.2454,0.2316,0.2259,0.2359,0.2457,0.2455,0.2454,0.2452,0.2451,0,0.1535,0.162,0.1666,0.1694,0.1789,0.1844,0.1908,0.2019,0.208,0.2209,0.2269,0.236,0.2426,0.2469,0.2519,0.2495,0.2603,0.256,0.2456,0.2447,0.2525,0.2514,0.2624,0.2624,0.2624,0.2624,0.2624,0,0.1512,0.155,0.1653,0.1675,0.1741,0.1824,0.1916,0.1995,0.2117,0.2185,0.23,0.2363,0.2463,0.2535,0.2553,0.2545,0.2635,0.2478,0.246,0.2545,0.2536,0.2533,0.2521,0.2627,0.2626,0.2625,0.2625,0,0.1445,0.1512,0.1568,0.168,0.1721,0.1773,0.1915,0.1971,0.2104,0.2202,0.225,0.2397,0.2486,0.2564,0.2642,0.2576,0.2584,0.256,0.2667,0.2652,0.2395,0.2386,0.2433,0.2429,0.2426,0.2423,0.242,0,0.1408,0.1435,0.1559,0.1597,0.1658,0.1752,0.1813,0.1953,0.201,0.2198,0.2224,0.2377,0.2456,0.2461,0.255,0.2577,0.255,0.2531,0.244,0.24,0.2378,0.2374,0.237,0.2415,0.2414,0.2413,0.2412,0,0.1342,0.1406,0.1454,0.1534,0.1607,0.1667,0.1767,0.1793,0.1945,0.2085,0.2151,0.2211,0.2311,0.237,0.2422,0.2431,0.2523,0.2493,0.2499,0.2414,0.2378,0.2359,0.2358,0.24,0.2401,0.2403,0.2403,0,0.1302,0.1319,0.1397,0.1453,0.1532,0.1553,0.1619,0.1684,0.1757,0.1953,0.1975,0.214,0.2283,0.2298,0.2342,0.2348,0.2301,0.2207,0.2226,0.2241,0.2143,0.2067,0.1989,0,0,0,0,0,0.1252,0.1257,0.1305,0.1351,0.1422,0.1466,0.1569,0.1636,0.1783,0.1778,0.1868,0.1952,0.2029,0.2121,0.2088,0.2259,0.2309,0.221,0.221,0.2332,0.2346,0.2249,0,0,0,0,0,0,0.1215,0.1256,0.1267,0.1251,0.1266,0.1322,0.1382,0.1482,0.1484,0.1648,0.1705,0.1834,0.1943,0.2032,0.2053,0.2079,0.2037,0.2316,0.2311,0.2324,0.2337,0.2348,0.2253,0,0,0,0,0]},{"header":{"parameterUnit":"m.s-1","parameterCategory":2,"la1":30.2991,"la2":30.254,"lo1":-89.0895,"lo2":-89.0444,"dy":0.0017,"dx":0.0017,"nx":28,"ny":28,"refTime":"2023-09-22T03:00:00:Z","depth":"4","parameterNumber":3,"parameterNumberName":"V-component_of_CURRENTS"},"data":[0,0,0,0,0,0,0,0,0,0,0,0,0,0,0,0,0,0,0,0,0,0,0,0,0,0,0,0,0,0,0,0,0,0,0,0,0,0,0,0,0,0,0,0,0,0,0,0,0,0,0,0,0,0,0,0,0,0,0.0195,0.0195,0,0.0171,0.0171,0.0171,0.0147,0.0147,0.0147,0.0147,0.0097,0.0096,0.0095,0,0,0,0,0,0,0,0,0,0,0,0,0,0.0198,0.0198,0.0195,0.0195,0.0195,0.0171,0.0171,0.0171,0.0147,0.0147,0.0147,0.0147,0.0097,0.0096,0.0095,0,0,0,0,0,0,0,0,0,0,0,0,0,0.0187,0.0198,0.0195,0.0181,0.0179,0.0171,0.0171,0.017,0.0148,0.0147,0.0147,0.0147,0.0098,0.0096,0.0094,0.0091,0,0,0.0089,0.0089,0,0,0,0,0,0,0,0,0.0188,0.0187,0.0183,0.0182,0.018,0.0163,0.0154,0.0143,0.0148,0.0159,0.0147,0.0146,0.0117,0.0114,0.0109,0.0089,0.0087,0.0089,0.0088,0.0087,0.0087,0,0,0,0,0,0,0,0.0189,0.0188,0.0185,0.0183,0.0181,0.0168,0.0166,0.0151,0.0139,0.0158,0.0156,0.0155,0.0116,0.0111,0.0108,0.0086,0.0089,0.0088,0.0087,0.0086,0.0057,0.0057,0,0,0,0,0,0,0.0195,0.0189,0.0186,0.0184,0.0184,0.0168,0.0166,0.0168,0.014,0.0136,0.0155,0.0154,0.0114,0.011,0.0106,0.0112,0.0087,0.0086,0.0085,0.0057,0.0057,0.0057,0,0,0,0,0,0,0.0195,0.0195,0.0187,0.0186,0.0184,0.0169,0.0171,0.0168,0.0166,0.0138,0.0133,0.0157,0.0114,0.0109,0.0099,0.0109,0.0085,0.0084,0.0057,0.0057,0.0057,0.0116,0,0,0,0,0,0,0.0195,0.0195,0.0201,0.0187,0.0185,0.0188,0.0171,0.0168,0.0165,0.0163,0.0138,0.0133,0.0113,0.0102,0.0098,0.0107,0.0082,0.0056,0.0057,0.0057,0.0114,0.0119,0.0122,0,0,0,0,0,0.0195,0.0208,0.0202,0.0201,0.0193,0.0188,0.0186,0.0173,0.0166,0.0169,0.0152,0.0134,0.0101,0.0101,0.0096,0.0105,0.0056,0.0057,0.0057,0.0112,0.0118,0.0122,0,0,0,0,0,0,0.0213,0.0206,0.0199,0.0209,0.0201,0.0184,0.0188,0.0178,0.0168,0.0168,0.0139,0.0133,0.0128,0.0107,0.0108,0.0096,0.0074,0.0074,0.0118,0.0123,0.0127,0.0137,0.0081,0,0,0,0,0,0.022,0.0228,0.0215,0.0224,0.0221,0.0205,0.0203,0.0195,0.0183,0.0178,0.0158,0.0139,0.0126,0.0118,0.0101,0.0097,0.0068,0.0097,0.0102,0.0106,0.0109,0.0074,0.0075,0.0059,0.0059,0.0059,0,0,0.0231,0.0228,0.0233,0.0228,0.0221,0.0227,0.0203,0.0206,0.0213,0.0175,0.0177,0.0154,0.0128,0.0124,0.0119,0.0109,0.0095,0.0106,0.011,0.0111,0.0075,0.0076,0.0078,0.0059,0.0059,0.0059,0,0,0.0255,0.0252,0.0265,0.0263,0.0257,0.0248,0.0251,0.0237,0.0232,0.0231,0.0206,0.0189,0.0169,0.0151,0.014,0.0156,0.0118,0.015,0.0181,0.0147,0.0148,0.0149,0.0115,0.0112,0.0153,0.0153,0.0153,0,0.0267,0.0282,0.0268,0.0279,0.0285,0.0261,0.0277,0.027,0.0255,0.0254,0.024,0.0207,0.0183,0.0178,0.0182,0.0167,0.014,0.0167,0.0153,0.0153,0.0153,0.0118,0.0114,0.0156,0.0155,0.0155,0.0155,0,0.03,0.0313,0.0321,0.0328,0.0331,0.0343,0.0332,0.0332,0.0322,0.0309,0.03,0.0264,0.0244,0.0232,0.0213,0.0202,0.0181,0.0163,0.0143,0.0158,0.012,0.0115,0.016,0.0159,0.0158,0.0157,0,0,0.0323,0.0341,0.0345,0.036,0.0361,0.0369,0.0381,0.0383,0.0394,0.0368,0.0375,0.0342,0.0315,0.03,0.0269,0.0238,0.021,0.0205,0.0201,0.0176,0.0134,0.0114,0.0106,0.019,0.019,0.0189,0.0109,0,0.0352,0.0389,0.0389,0.0426,0.0442,0.0434,0.0452,0.0451,0.0437,0.0435,0.0395,0.0387,0.0344,0.0337,0.03,0.0235,0.0199,0.0234,0.0118,0.0115,0.01,0.0101,0.0188,0.0105,0.0104,0.0103,0.0102,0,0.038,0.0405,0.0447,0.048,0.0488,0.0507,0.053,0.0545,0.0532,0.0522,0.0497,0.0458,0.0417,0.0377,0.0271,0.0295,0.0221,0.0164,0.0159,0.0117,0.0086,0.0084,0.0092,0.0093,0.0094,0.0094,0.0095,0,0.0404,0.0443,0.0482,0.0494,0.0527,0.0549,0.0568,0.0571,0.0594,0.0576,0.0579,0.0516,0.0493,0.0393,0.0273,0.0272,0.0149,0.013,0.004,0.0038,0.0054,0.0054,0.005,0.0051,0.0051,0.0051,0.0051,0,0.043,0.0462,0.0499,0.0523,0.058,0.0589,0.0642,0.0648,0.0664,0.0694,0.0628,0.0623,0.0495,0.0408,0.0291,0.0151,0.0158,0.0045,0.0016,0.008,0.0084,0.005,0.0051,0.0048,0.0049,0.0049,0.005,0,0.0444,0.0468,0.0519,0.057,0.0592,0.0635,0.0702,0.0736,0.0743,0.0776,0.0776,0.0705,0.0588,0.0446,0.0282,0.0181,0.0044,-0.001,0.0072,0.0049,-0.0049,-0.0044,-0.0114,-0.0116,-0.0117,-0.0118,-0.0119,0,0.0454,0.0483,0.0557,0.0597,0.0624,0.069,0.074,0.0776,0.0812,0.0823,0.0837,0.0744,0.0674,0.0434,0.0275,0.0048,0.0012,-0.0061,-0.006,-0.0045,-0.0066,-0.0059,-0.0053,-0.0121,-0.0121,-0.0121,-0.0121,0,0.0475,0.0503,0.0546,0.0631,0.0692,0.0765,0.0833,0.0865,0.0907,0.0914,0.0885,0.0762,0.0628,0.0437,0.0259,0.0096,-0.0014,-0.0074,-0.0073,-0.0072,-0.0053,-0.0071,-0.0064,-0.0125,-0.0125,-0.0124,-0.0124,0,0.049,0.0521,0.0581,0.0655,0.0737,0.081,0.0849,0.089,0.0929,0.0937,0.0926,0.0782,0.0709,0.0461,0.0297,0.0133,0.0087,0.003,0.0025,0.0027,0.0087,0.0133,0.0094,0,0,0,0,0,0.0499,0.0533,0.0601,0.068,0.0764,0.0816,0.0898,0.0929,0.0966,0.0954,0.0944,0.0819,0.0581,0.0479,0.0311,0.0257,0.0046,0.0052,-0.0025,-0.0148,-0.0143,-0.01,0,0,0,0,0,0,0.0501,0.0561,0.0593,0.0689,0.0748,0.0842,0.0898,0.0926,0.0919,0.0931,0.0809,0.0766,0.0533,0.0677,0.0304,0.0255,0.018,-0.0052,-0.0056,-0.015,-0.0146,-0.0142,-0.0096,0,0,0,0,0]}]]